Date String (YYYY-MM-DD hh:mm:ss) UTC,Instrument flags,Ambient pressure (hPa),Sample flow (lpm),Bypass flow (lpm),Sample temperature (°C),Ambient temperature (°C),ASC tube jacket temperature (°C),LED temperature (°C),Box temperature (°C),Sample RH (%),Span deviation,Mass concentration (μg/m³),Mass concentration (μg/m³),Mass concentration (μg/m³)
DateTimeUTC,F1_M11,P_M11,Q1_M11,Q2_M11,T1_M11,T2_M11,T3_M11,T4_M11,T5_M11,U1_M11,ZSPAN_M11,X0_M11,X2_M11,X1_M11
2022-05-15 05:00:00,,0827.5,5.00,0.00,29.6,27.9,00.0,38.6,31.3,09.9,0000.0,0011.00,0003.59,0002.15
2022-05-15 05:01:00,,0827.5,5.00,0.00,29.6,28.0,00.0,38.6,31.3,10.2,0000.0,0011.58,0003.59,0002.14
2022-05-15 05:02:00,,0827.5,5.00,0.00,29.7,28.2,00.0,38.6,31.3,10.0,0000.0,0011.23,0003.53,0002.14
2022-05-15 05:03:00,,0827.5,4.99,0.00,29.7,28.3,00.0,38.6,31.4,09.7,0000.0,0011.08,0003.54,0002.15
2022-05-15 05:04:00,,0827.5,4.99,0.00,29.7,28.4,00.0,38.6,31.4,09.7,0000.0,0011.10,0003.60,0002.14
2022-05-15 05:05:00,,0827.6,5.00,0.00,29.7,28.4,00.0,38.6,31.5,09.6,0000.0,0010.99,0003.60,0002.16
2022-05-15 05:06:00,,0827.5,5.00,0.00,29.7,28.5,00.0,38.6,31.5,10.4,0000.0,0010.78,0003.65,0002.15
2022-05-15 05:07:00,,0827.5,4.99,0.00,29.8,28.6,00.0,38.6,31.5,10.6,0000.0,0010.87,0003.62,0002.16
2022-05-15 05:08:00,,0827.6,5.00,0.00,29.8,28.6,00.0,38.6,31.6,10.4,0000.0,0011.26,0003.60,0002.17
2022-05-15 05:09:00,,0827.5,5.02,0.00,29.8,28.7,00.0,38.7,31.6,10.4,0000.0,0012.29,0003.68,0002.19
2022-05-15 05:10:00,,0827.5,4.99,0.00,29.8,28.7,00.0,38.7,31.6,10.2,0000.0,0011.98,0003.68,0002.20
2022-05-15 05:11:00,,0827.6,4.99,0.00,29.8,28.8,00.0,38.7,31.6,10.1,0000.0,0012.22,0003.65,0002.20
2022-05-15 05:12:00,,0827.6,5.01,0.00,29.9,28.8,00.0,38.7,31.6,10.0,0000.0,0011.55,0003.62,0002.20
2022-05-15 05:13:00,,0827.5,5.00,0.00,29.9,28.8,00.0,38.7,31.7,10.0,0000.0,0011.48,0003.63,0002.20
2022-05-15 05:14:00,,0827.5,5.00,0.00,29.9,28.8,00.0,38.7,31.7,10.1,0000.0,0012.06,0003.64,0002.21
2022-05-15 05:15:00,,0827.5,4.99,0.00,29.9,28.8,00.0,38.7,31.7,10.1,0000.0,0012.29,0003.58,0002.20
2022-05-15 05:16:00,,0827.6,5.01,0.00,30.0,28.8,00.0,38.8,31.7,10.1,0000.0,0011.95,0003.53,0002.18
2022-05-15 05:17:00,,0827.5,5.00,0.00,30.0,28.8,00.0,38.8,31.8,10.6,0000.0,0010.91,0003.48,0002.17
2022-05-15 05:18:00,,0827.5,5.00,0.00,30.0,28.8,00.0,38.8,31.8,10.8,0000.0,0010.61,0003.49,0002.16
2022-05-15 05:19:00,,0827.5,4.99,0.00,30.0,28.8,00.0,38.8,31.7,10.3,0000.0,0010.41,0003.51,0002.14
2022-05-15 05:20:00,,0827.5,5.00,0.00,30.0,28.8,00.0,38.8,31.8,10.0,0000.0,0010.54,0003.49,0002.15
2022-05-15 05:21:00,,0827.5,5.00,0.00,30.0,28.9,00.0,38.9,31.7,09.8,0000.0,0010.78,0003.49,0002.14
2022-05-15 05:22:00,,0827.5,5.00,0.00,30.1,28.9,00.0,38.9,31.8,09.7,0000.0,0010.07,0003.51,0002.15
2022-05-15 05:23:00,,0827.5,5.00,0.00,30.1,28.9,00.0,38.9,31.8,09.6,0000.0,0011.24,0003.55,0002.17
2022-05-15 05:24:00,,0827.5,4.99,0.00,30.1,28.9,00.0,38.9,31.9,09.6,0000.0,0012.07,0003.61,0002.18
2022-05-15 05:25:00,,0827.5,5.00,0.00,30.1,28.9,00.0,38.9,31.9,10.0,0000.0,0011.60,0003.60,0002.17
2022-05-15 05:26:00,,0827.5,4.99,0.00,30.1,28.9,00.0,38.9,31.9,10.0,0000.0,0011.13,0003.59,0002.16
2022-05-15 05:27:00,,0827.6,4.97,0.00,30.1,29.0,00.0,39.0,31.9,10.0,0000.0,0011.37,0003.66,0002.16
2022-05-15 05:28:00,,0827.5,5.01,0.00,30.1,29.0,00.0,39.0,31.9,09.9,0000.0,0011.75,0003.68,0002.18
2022-05-15 05:29:00,,0827.5,5.00,0.00,30.1,28.9,00.0,39.0,31.9,09.8,0000.0,0012.03,0003.65,0002.21
2022-05-15 05:30:00,,0827.5,5.00,0.00,30.1,27.2,00.0,39.0,31.5,09.8,0000.0,0012.16,0003.66,0002.23
2022-05-15 05:31:00,,0827.4,5.00,0.00,29.9,25.6,00.0,38.9,31.2,09.8,0000.0,0011.83,0003.70,0002.26
2022-05-15 05:32:00,,0827.4,5.00,0.00,29.9,25.7,00.0,38.9,31.3,09.8,0000.0,0011.49,0003.68,0002.27
2022-05-15 05:33:00,,0827.3,5.01,0.00,29.8,26.2,00.0,38.8,31.3,09.7,0000.0,0011.40,0003.67,0002.26
2022-05-15 05:34:00,,0827.4,4.99,0.00,29.7,26.6,00.0,38.8,31.2,09.7,0000.0,0010.27,0003.62,0002.26
2022-05-15 05:35:00,,0827.4,4.99,0.00,29.7,27.0,00.0,38.8,31.3,09.7,0000.0,0009.32,0003.59,0002.25
2022-05-15 05:36:00,,0827.5,5.01,0.00,29.7,27.4,00.0,38.7,31.3,09.7,0000.0,0009.26,0003.57,0002.26
2022-05-15 05:37:00,,0827.5,5.00,0.00,29.7,27.7,00.0,38.7,31.4,10.2,0000.0,0009.39,0003.59,0002.28
2022-05-15 05:38:00,,0827.5,4.99,0.00,29.7,27.9,00.0,38.7,31.4,10.6,0000.0,0009.77,0003.59,0002.27
2022-05-15 05:39:00,,0827.5,5.00,0.00,29.7,28.0,00.0,38.7,31.4,10.3,0000.0,0010.32,0003.57,0002.27
2022-05-15 05:40:00,,0827.5,5.00,0.00,29.7,28.2,00.0,38.7,31.4,10.5,0000.0,0010.80,0003.54,0002.23
2022-05-15 05:41:00,,0827.5,5.01,0.00,29.7,28.3,00.0,38.7,31.4,10.1,0000.0,0010.81,0003.54,0002.20
2022-05-15 05:42:00,,0827.4,5.00,0.00,29.8,28.4,00.0,38.7,31.5,09.8,0000.0,0010.25,0003.47,0002.18
2022-05-15 05:43:00,,0827.4,5.00,0.00,29.8,28.5,00.0,38.7,31.5,09.8,0000.0,0010.25,0003.50,0002.17
2022-05-15 05:44:00,,0827.4,4.99,0.00,29.8,28.5,00.0,38.7,31.5,09.9,0000.0,0010.29,0003.50,0002.17
2022-05-15 05:45:00,,0827.5,5.01,0.00,29.8,28.6,00.0,38.7,31.6,09.7,0000.0,0010.58,0003.53,0002.17
2022-05-15 05:46:00,,0827.5,4.99,0.00,29.8,28.6,00.0,38.7,31.6,10.2,0000.0,0011.10,0003.55,0002.17
2022-05-15 05:47:00,,0827.5,5.01,0.00,29.8,28.7,00.0,38.7,31.7,09.9,0000.0,0011.85,0003.52,0002.16
2022-05-15 05:48:00,,0827.5,5.00,0.00,29.9,28.7,00.0,38.7,31.6,09.9,0000.0,0012.02,0003.53,0002.15
2022-05-15 05:49:00,,0827.5,5.00,0.00,29.9,28.7,00.0,38.7,31.6,10.0,0000.0,0011.81,0003.55,0002.16
2022-05-15 05:50:00,,0827.5,4.98,0.00,29.9,28.8,00.0,38.8,31.7,10.0,0000.0,0011.28,0003.57,0002.14
2022-05-15 05:51:00,,0827.5,5.00,0.00,29.9,28.8,00.0,38.8,31.7,10.0,0000.0,0010.35,0003.64,0002.15
2022-05-15 05:52:00,,0827.5,5.01,0.00,29.9,28.8,00.0,38.8,31.7,09.9,0000.0,0010.47,0003.65,0002.17
2022-05-15 05:53:00,,0827.5,4.99,0.00,30.0,28.9,00.0,38.8,31.7,09.8,0000.0,0010.34,0003.62,0002.17
2022-05-15 05:54:00,,0827.5,5.00,0.00,30.0,28.9,00.0,38.8,31.8,10.2,0000.0,0010.21,0003.60,0002.17
2022-05-15 05:55:00,,0827.5,5.00,0.00,30.0,28.9,00.0,38.8,31.8,10.4,0000.0,0010.70,0003.57,0002.15
2022-05-15 05:56:00,,0827.5,5.00,0.00,30.0,28.9,00.0,38.8,31.8,10.4,0000.0,0010.86,0003.57,0002.12
2022-05-15 05:57:00,,0827.5,4.99,0.00,30.0,28.9,00.0,38.9,31.8,10.2,0000.0,0010.27,0003.51,0002.08
2022-05-15 05:58:00,,0827.5,5.00,0.00,30.0,28.9,00.0,38.9,31.8,10.0,0000.0,0009.54,0003.51,0002.04
2022-05-15 05:59:00,,0827.5,5.00,0.00,30.1,29.0,00.0,38.9,31.9,09.9,0000.0,0009.24,0003.48,0002.02
